| time (UTC) | temp F | wind direction | speed MPH | gust MPH | rain 1hr in | rain 24hr in | rain mn in | humidity % | barometer mb |
| 20260510133013 | 51 | 80 | 5.0 | 8.0 | 0.00 | 0.00 | 0.00 | 39 | 1017.5 |
| 20260510131512 | 51 | 86 | 5.0 | 8.0 | 0.00 | 0.00 | 0.00 | 37 | 1017.4 |
| 20260510130030 | 51 | 90 | 5.0 | 7.0 | 0.00 | 0.00 | 0.00 | 37 | 1017.3 |
| 20260510124509 | 51 | 86 | 5.0 | 8.0 | 0.00 | 0.00 | 0.00 | 36 | 1017.2 |
| 20260510123007 | 51 | 76 | 6.0 | 8.0 | 0.00 | 0.00 | 0.00 | 35 | 1017.1 |
| 20260510121510 | 51 | 86 | 6.0 | 9.0 | 0.00 | 0.00 | 0.00 | 35 | 1017.0 |
| 20260510120024 | 51 | 88 | 5.0 | 8.0 | 0.00 | 0.00 | 0.00 | 35 | 1017.0 |
| 20260510114513 | 51 | 88 | 4.0 | 8.0 | 0.00 | 0.00 | 0.00 | 34 | 1017.0 |
| 20260510113006 | 51 | 100 | 5.0 | 8.0 | 0.00 | 0.00 | 0.00 | 33 | 1016.9 |
| 20260510111502 | 51 | 86 | 4.0 | 9.0 | 0.00 | 0.00 | 0.00 | 33 | 1016.7 |
| 20260510110003 | 51 | 100 | 5.0 | 7.0 | 0.00 | 0.00 | 0.00 | 33 | 1016.7 |
| 20260510104600 | 50 | 95 | 4.0 | 7.0 | 0.00 | 0.00 | 0.00 | 34 | 1016.8 |
| 20260510103059 | 51 | 84 | 5.0 | 9.0 | 0.00 | 0.00 | 0.00 | 33 | 1016.8 |
| 20260510101559 | 51 | 88 | 5.0 | 7.0 | 0.00 | 0.00 | 0.00 | 34 | 1016.7 |
| 20260510094555 | 50 | 76 | 3.0 | 7.0 | 0.00 | 0.00 | 0.00 | 34 | 1016.4 |
| 20260510093058 | 51 | 80 | 2.0 | 5.0 | 0.00 | 0.00 | 0.00 | 34 | 1016.4 |
| 20260510091550 | 51 | 87 | 3.0 | 7.0 | 0.00 | 0.00 | 0.00 | 33 | 1016.3 |
| 20260510090049 | 51 | 86 | 2.0 | 6.0 | 0.00 | 0.00 | 0.00 | 33 | 1016.1 |
| 20260510084546 | 52 | 88 | 2.0 | 6.0 | 0.00 | 0.00 | 0.00 | 33 | 1016.0 |
| 20260510083058 | 51 | 74 | 4.0 | 7.0 | 0.00 | 0.00 | 0.00 | 33 | 1016.0 |
| 20260510081545 | 52 | 107 | 3.0 | 7.0 | 0.00 | 0.00 | 0.00 | 33 | 1016.0 |
| 20260510080045 | 52 | 132 | 2.0 | 5.0 | 0.00 | 0.00 | 0.00 | 32 | 1015.7 |
| 20260510074543 | 52 | 111 | 3.0 | 7.0 | 0.00 | 0.00 | 0.00 | 33 | 1015.7 |
| 20260510073041 | 52 | 105 | 3.0 | 5.0 | 0.00 | 0.00 | 0.00 | 34 | 1015.7 |
| 20260510071541 | 52 | 86 | 3.0 | 4.0 | 0.00 | 0.00 | 0.00 | 35 | 1015.6 |
| 20260510070038 | 51 | 94 | 3.0 | 6.0 | 0.00 | 0.00 | 0.00 | 36 | 1015.4 |
| 20260510064539 | 52 | 78 | 2.0 | 5.0 | 0.00 | 0.00 | 0.00 | 34 | 1015.2 |
| 20260510063034 | 53 | 92 | 2.0 | 5.0 | 0.00 | 0.00 | 0.00 | 34 | 1014.9 |
| 20260510061530 | 54 | 87 | 2.0 | 5.0 | 0.00 | 0.00 | 0.00 | 32 | 1014.9 |
| 20260510060032 | 55 | 200 | 0.0 | 2.0 | 0.00 | 0.00 | 0.00 | 30 | 1014.8 |
| 20260510054525 | 57 | 215 | 1.0 | 4.0 | 0.00 | 0.00 | 0.00 | 30 | 1014.6 |
| 20260510053027 | 57 | 81 | 1.0 | 4.0 | 0.00 | 0.00 | 0.00 | 28 | 1014.3 |
| 20260510051525 | 58 | 90 | 5.0 | 8.0 | 0.00 | 0.00 | 0.00 | 28 | 1014.3 |
| 20260510050024 | 59 | 111 | 3.0 | 9.0 | 0.00 | 0.00 | 0.00 | 28 | 1014.4 |
| 20260510044525 | 60 | 77 | 5.0 | 11.0 | 0.00 | 0.00 | 0.00 | 26 | 1014.3 |
| 20260510043024 | 60 | 76 | 6.0 | 12.0 | 0.00 | 0.00 | 0.00 | 25 | 1014.2 |
| 20260510041523 | 60 | 88 | 4.0 | 11.0 | 0.00 | 0.00 | 0.00 | 25 | 1014.2 |
| 20260510040024 | 59 | 76 | 6.0 | 10.0 | 0.00 | 0.00 | 0.00 | 24 | 1014.1 |
| 20260510034527 | 61 | 74 | 5.0 | 10.0 | 0.00 | 0.00 | 0.00 | 23 | 1014.0 |
| 20260510033025 | 61 | 75 | 6.0 | 10.0 | 0.00 | 0.00 | 0.00 | 22 | 1013.6 |
| 20260510031523 | 60 | 86 | 7.0 | 12.0 | 0.00 | 0.00 | 0.00 | 23 | 1013.3 |
| 20260510030025 | 61 | 50 | 2.0 | 11.0 | 0.00 | 0.00 | 0.00 | 22 | 1013.1 |
| 20260510024521 | 62 | 81 | 4.0 | 11.0 | 0.00 | 0.00 | 0.00 | 22 | 1012.9 |
| 20260510023022 | 63 | 78 | 4.0 | 8.0 | 0.00 | 0.00 | 0.00 | 20 | 1012.8 |
| 20260510021530 | 66 | 50 | 2.0 | 4.0 | 0.00 | 0.00 | 0.00 | 20 | 1012.7 |
| 20260510020025 | 67 | 22 | 2.0 | 5.0 | 0.00 | 0.00 | 0.00 | 20 | 1012.7 |
| 20260510014525 | 67 | 50 | 2.0 | 7.0 | 0.00 | 0.00 | 0.00 | 19 | 1012.7 |
| 20260510013025 | 68 | 45 | 1.0 | 8.0 | 0.00 | 0.00 | 0.00 | 19 | 1012.7 |
| 20260510011520 | 67 | 21 | 2.0 | 7.0 | 0.00 | 0.00 | 0.00 | 20 | 1012.8 |
| 20260510010020 | 67 | 24 | 4.0 | 8.0 | 0.00 | 0.00 | 0.00 | 20 | 1012.9 |
| 20260510004519 | 68 | 296 | 5.0 | 10.0 | 0.00 | 0.00 | 0.00 | 19 | 1013.0 |
| 20260510003018 | 68 | 26 | 5.0 | 10.0 | 0.00 | 0.00 | 0.00 | 19 | 1012.9 |
| 20260510001517 | 67 | 5 | 3.0 | 9.0 | 0.00 | 0.00 | 0.00 | 21 | 1013.0 |
| 20260510000017 | 67 | 24 | 5.0 | 10.0 | 0.00 | 0.00 | 0.00 | 20 | 1013.2 |
| 20260509234529 | 67 | 319 | 7.0 | 10.0 | 0.00 | 0.00 | 0.00 | 21 | 1013.0 |
| 20260509233016 | 67 | 21 | 3.0 | 9.0 | 0.00 | 0.00 | 0.00 | 22 | 1013.1 |
| 20260509231518 | 67 | 261 | 6.0 | 13.0 | 0.00 | 0.00 | 0.00 | 22 | 1013.2 |
| 20260509230016 | 67 | 350 | 4.0 | 12.0 | 0.00 | 0.00 | 0.00 | 23 | 1013.3 |
| 20260509224528 | 67 | 327 | 6.0 | 12.0 | 0.00 | 0.00 | 0.00 | 22 | 1013.3 |
| 20260509223016 | 66 | 16 | 7.0 | 16.0 | 0.00 | 0.00 | 0.00 | 23 | 1013.3 |
| 20260509221515 | 67 | 355 | 7.0 | 15.0 | 0.00 | 0.00 | 0.00 | 24 | 1013.4 |
| 20260509220015 | 67 | 321 | 8.0 | 13.0 | 0.00 | 0.00 | 0.00 | 25 | 1013.6 |
| 20260509214514 | 67 | 280 | 5.0 | 9.0 | 0.00 | 0.00 | 0.00 | 24 | 1013.5 |
| 20260509213013 | 66 | 31 | 4.0 | 12.0 | 0.00 | 0.00 | 0.00 | 25 | 1013.6 |
| 20260509211512 | 65 | 28 | 5.0 | 11.0 | 0.00 | 0.00 | 0.00 | 26 | 1013.7 |
| 20260509210012 | 65 | 319 | 7.0 | 12.0 | 0.00 | 0.00 | 0.00 | 24 | 1013.7 |
| 20260509204512 | 65 | 355 | 7.0 | 11.0 | 0.00 | 0.00 | 0.00 | 24 | 1013.8 |
| 20260509203012 | 66 | 334 | 5.0 | 10.0 | 0.00 | 0.00 | 0.00 | 24 | 1013.9 |
| 20260509201512 | 66 | 79 | 2.0 | 11.0 | 0.00 | 0.00 | 0.00 | 26 | 1014.0 |
| 20260509200009 | 65 | 42 | 5.0 | 11.0 | 0.00 | 0.00 | 0.00 | 25 | 1014.1 |
| 20260509194508 | 64 | 348 | 3.0 | 10.0 | 0.00 | 0.00 | 0.00 | 25 | 1014.1 |
| 20260509193009 | 64 | 308 | 5.0 | 15.0 | 0.00 | 0.00 | 0.00 | 24 | 1014.4 |
| 20260509191509 | 65 | 310 | 3.0 | 11.0 | 0.00 | 0.00 | 0.00 | 26 | 1014.3 |
| 20260509190011 | 63 | 338 | 3.0 | 12.0 | 0.00 | 0.00 | 0.00 | 24 | 1014.4 |
| 20260509184516 | 63 | 40 | 3.0 | 13.0 | 0.00 | 0.00 | 0.00 | 25 | 1014.5 |
| 20260509183007 | 64 | 329 | 8.0 | 15.0 | 0.00 | 0.00 | 0.00 | 25 | 1014.5 |
| 20260509181503 | 62 | 298 | 6.0 | 13.0 | 0.00 | 0.00 | 0.00 | 25 | 1014.6 |
| 20260509180002 | 62 | 33 | 6.0 | 13.0 | 0.00 | 0.00 | 0.00 | 24 | 1014.4 |
| 20260509174501 | 62 | 318 | 4.0 | 11.0 | 0.00 | 0.00 | 0.00 | 27 | 1014.5 |
| 20260509173003 | 61 | 5 | 6.0 | 13.0 | 0.00 | 0.00 | 0.00 | 24 | 1014.5 |
| 20260509171504 | 62 | 347 | 5.0 | 11.0 | 0.00 | 0.00 | 0.00 | 24 | 1014.4 |
| 20260509170003 | 61 | 13 | 5.0 | 13.0 | 0.00 | 0.00 | 0.00 | 22 | 1014.4 |
| 20260509164503 | 62 | 18 | 6.0 | 17.0 | 0.00 | 0.00 | 0.00 | 24 | 1014.5 |
| 20260509163002 | 62 | 346 | 6.0 | 13.0 | 0.00 | 0.00 | 0.00 | 24 | 1014.4 |
| 20260509161604 | 62 | 33 | 6.0 | 15.0 | 0.00 | 0.00 | 0.00 | 24 | 1014.6 |
| 20260509160059 | 62 | 75 | 8.0 | 16.0 | 0.00 | 0.00 | 0.00 | 25 | 1014.5 |
| 20260509154612 | 62 | 68 | 7.0 | 18.0 | 0.00 | 0.00 | 0.00 | 26 | 1014.6 |
| 20260509153109 | 61 | 58 | 5.0 | 12.0 | 0.00 | 0.00 | 0.00 | 27 | 1014.6 |
| 20260509151601 | 61 | 360 | 3.0 | 16.0 | 0.00 | 0.00 | 0.00 | 27 | 1014.4 |
| 20260509150052 | 61 | 38 | 3.0 | 9.0 | 0.00 | 0.00 | 0.00 | 28 | 1014.1 |
| 20260509144549 | 60 | 20 | 5.0 | 14.0 | 0.00 | 0.00 | 0.00 | 28 | 1014.2 |
| 20260509143057 | 59 | 14 | 6.0 | 10.0 | 0.00 | 0.00 | 0.00 | 28 | 1014.1 |
| 20260509141548 | 57 | 341 | 3.0 | 11.0 | 0.00 | 0.00 | 0.00 | 33 | 1014.1 |
| 20260509140046 | 55 | 360 | 6.0 | 13.0 | 0.00 | 0.00 | 0.00 | 32 | 1013.9 |
| 20260509134545 | 55 | 26 | 5.0 | 14.0 | 0.00 | 0.00 | 0.00 | 32 | 1013.8 |